When you browse on this site, cookies collect data to enhance your experience and personalize the content and advertising you see.
Visit our Privacy Policy to learn more. By continuing to use the site, you agree to this use of cookies and data.
  • en Suisse
  • Liste des pays
  • À 7 jours
  • Température de l'eau
  • Carte météo
  • Widgets météo
  • user-avatar
    Se connecter

    Météo par heure à Plav'ya

    Ce jour, 23 Octobre, Mercredi

    Heure Température Précipitation Vent Pression Humidité
    00:00 +19°C° 0 mm 1 m/s 735 mmHg 68%
    01:00 +19°C° 0 mm 1 m/s 735 mmHg 68%
    02:00 +13°C° 0 mm 0 m/s 735 mmHg 86%
    03:00 +15°C° 0 mm 1 m/s 735 mmHg 76%
    04:00 +16°C° 0 mm 1 m/s 734 mmHg 73%
    05:00 +16°C° 0 mm 1 m/s 734 mmHg 71%
    06:00 +16°C° 0 mm 1 m/s 734 mmHg 71%
    07:00 +16°C° 0 mm 1 m/s 734 mmHg 72%
    08:00 +16°C° 0 mm 1 m/s 735 mmHg 73%
    09:00 +16°C° 0 mm 1 m/s 735 mmHg 75%
    10:00 +17°C° 0 mm 2 m/s 735 mmHg 81%
    11:00 +18°C° 0 mm 2 m/s 735 mmHg 79%
    12:00 +19°C° 0 mm 2 m/s 735 mmHg 77%
    13:00 +21°C° 0 mm 1 m/s 735 mmHg 77%
    14:00 +21°C° 0 mm 1 m/s 735 mmHg 77%
    15:00 +21°C° 0 mm 1 m/s 735 mmHg 79%
    16:00 +21°C° 0 mm 1 m/s 734 mmHg 83%
    17:00 +20°C° 0 mm 1 m/s 734 mmHg 86%
    18:00 +20°C° 0 mm 1 m/s 734 mmHg 78%
    19:00 +20°C° 0 mm 1 m/s 734 mmHg 73%
    20:00 +20°C° 0 mm 1 m/s 734 mmHg 69%
    21:00 +20°C° 0 mm 1 m/s 734 mmHg 67%
    22:00 +18°C° 0 mm 2 m/s 733 mmHg 67%
    23:00 +18°C° 0 mm 2 m/s 734 mmHg 68%

    Demain, 24 Octobre, Jeudi

    Heure Température Précipitation Vent Pression Humidité
    00:00 +18°C° 0 mm 2 m/s 733 mmHg 69%
    01:00 +18°C° 0 mm 2 m/s 733 mmHg 69%
    02:00 +18°C° 0 mm 2 m/s 733 mmHg 68%
    03:00 +18°C° 0 mm 2 m/s 733 mmHg 67%
    04:00 +17°C° 0 mm 3 m/s 733 mmHg 67%
    05:00 +17°C° 0 mm 3 m/s 733 mmHg 68%
    06:00 +17°C° 0 mm 3 m/s 732 mmHg 69%
    07:00 +16°C° 0 mm 3 m/s 732 mmHg 69%
    08:00 +16°C° 0 mm 3 m/s 732 mmHg 69%
    09:00 +17°C° 0 mm 3 m/s 732 mmHg 72%
    10:00 +18°C° 0 mm 3 m/s 733 mmHg 74%
    11:00 +19°C° 0 mm 3 m/s 733 mmHg 73%
    12:00 +20°C° 0 mm 3 m/s 733 mmHg 73%
    13:00 +20°C° 0 mm 3 m/s 733 mmHg 73%
    14:00 +20°C° 0 mm 3 m/s 732 mmHg 74%
    15:00 +20°C° 0 mm 3 m/s 732 mmHg 75%
    16:00 +20°C° 0 mm 2 m/s 732 mmHg 78%
    17:00 +19°C° 0 mm 2 m/s 731 mmHg 79%
    18:00 +19°C° 0 mm 2 m/s 731 mmHg 75%
    19:00 +19°C° 0 mm 2 m/s 731 mmHg 71%
    20:00 +19°C° 0 mm 2 m/s 731 mmHg 68%
    21:00 +19°C° 0 mm 2 m/s 731 mmHg 67%
    22:00 +18°C° 0 mm 2 m/s 732 mmHg 67%
    23:00 +18°C° 0 mm 3 m/s 732 mmHg 67%

    Après-demain, 25 Octobre, Vendredi

    Heure Température Précipitation Vent Pression Humidité
    00:00 +18°C° 0 mm 3 m/s 732 mmHg 66%
    01:00 +18°C° 0 mm 3 m/s 732 mmHg 67%
    02:00 +18°C° 0 mm 3 m/s 732 mmHg 66%
    03:00 +18°C° 0 mm 3 m/s 732 mmHg 63%
    04:00 +18°C° 0 mm 2 m/s 732 mmHg 61%
    05:00 +18°C° 0 mm 2 m/s 732 mmHg 59%
    06:00 +17°C° 0 mm 2 m/s 732 mmHg 59%
    07:00 +17°C° 0 mm 2 m/s 732 mmHg 60%
    08:00 +18°C° 0 mm 1 m/s 732 mmHg 60%
    09:00 +18°C° 0 mm 1 m/s 732 mmHg 62%
    10:00 +19°C° 0 mm 1 m/s 733 mmHg 69%
    11:00 +20°C° 0 mm 1 m/s 733 mmHg 76%
    12:00 +21°C° 0 mm 1 m/s 733 mmHg 71%
    13:00 +21°C° 0 mm 1 m/s 733 mmHg 71%
    14:00 +21°C° 0 mm 1 m/s 733 mmHg 72%
    15:00 +19°C° 0 mm 0 m/s 733 mmHg 75%
    16:00 +21°C° 0 mm 1 m/s 733 mmHg 81%
    17:00 +20°C° 0 mm 1 m/s 733 mmHg 89%
    18:00 +19°C° 0 mm 1 m/s 733 mmHg 81%
    19:00 +19°C° 0 mm 1 m/s 733 mmHg 74%
    20:00 +19°C° 0 mm 1 m/s 733 mmHg 70%
    21:00 +19°C° 0 mm 1 m/s 733 mmHg 64%
    22:00 +19°C° 0 mm 1 m/s 734 mmHg 60%
    23:00 +19°C° 0 mm 1 m/s 734 mmHg 58%

    26 Octobre, Samedi

    Heure Température Précipitation Vent Pression Humidité
    00:00 +17°C° 0 mm 0 m/s 734 mmHg 59%
    01:00 +18°C° 0 mm 1 m/s 734 mmHg 60%
    02:00 +18°C° 0 mm 1 m/s 734 mmHg 62%
    03:00 +18°C° 0 mm 1 m/s 734 mmHg 63%
    04:00 +16°C° 0 mm 1 m/s 734 mmHg 67%
    05:00 +16°C° 0 mm 1 m/s 734 mmHg 70%
    06:00 +16°C° 0 mm 2 m/s 734 mmHg 71%
    07:00 +16°C° 0 mm 2 m/s 734 mmHg 70%
    08:00 +16°C° 0 mm 2 m/s 734 mmHg 70%
    09:00 +16°C° 0 mm 2 m/s 734 mmHg 71%
    10:00 +16°C° 0 mm 2 m/s 734 mmHg 80%
    11:00 +17°C° 0 mm 2 m/s 734 mmHg 84%
    12:00 +17°C° 0 mm 2 m/s 735 mmHg 85%
    13:00 +18°C° 0 mm 2 m/s 734 mmHg 87%
    14:00 +18°C° 0 mm 2 m/s 734 mmHg 88%
    15:00 +18°C° 0 mm 2 m/s 734 mmHg 90%
    16:00 +17°C° 0 mm 2 m/s 734 mmHg 94%
    17:00 +16°C° 0 mm 2 m/s 733 mmHg 97%
    18:00 +15°C° 0 mm 2 m/s 733 mmHg 100%
    19:00 +14°C° 0 mm 2 m/s 733 mmHg 100%
    20:00 +14°C° 0 mm 2 m/s 733 mmHg 100%
    21:00 +13°C° 0 mm 3 m/s 733 mmHg 100%
    22:00 +12°C° 0 mm 3 m/s 733 mmHg 98%
    23:00 +12°C° 0 mm 3 m/s 733 mmHg 99%

    27 Octobre, Dimanche

    Heure Température Précipitation Vent Pression Humidité
    00:00 +12°C° 0 mm 3 m/s 733 mmHg 100%
    01:00 +12°C° 0 mm 3 m/s 733 mmHg 100%
    02:00 +12°C° 0 mm 2 m/s 733 mmHg 99%

    28 Octobre, Lundi

    Heure Température Précipitation Vent Pression Humidité

    29 Octobre, Mardi

    Heure Température Précipitation Vent Pression Humidité
    Voir plus